Simultaneous Nadir Overpasses (SNOs) Predictions

Prediction of SNOs between GOES-17 and NOAA-20 Satellite Orbit:

Table of predicted SNOs for the next 14.0 days since TLE Epoch: 2/10/2024
Index Date Time (GOES-17) GOES-17 Lat,Lon NOAA-20 Lat,Lon Distance(km) Time Diff (sec)
1 02/10/2024 20:27:28 -0.03,-104.68 -0.30,-105.82 130.77 80
2 02/11/2024 20:11:23 -0.03,-104.68 0.70,-101.29 385.98 80
3 02/13/2024 08:33:11 0.03,-104.71 0.46,-106.56 211.33 80
4 02/14/2024 08:11:47 0.03,-104.72 -0.55,-102.03 305.36 80
5 02/15/2024 20:33:44 -0.03,-104.70 -0.61,-107.34 301.06 80
6 02/16/2024 20:17:40 -0.03,-104.70 0.41,-102.81 215.74 80
7 02/18/2024 08:39:27 0.04,-104.73 0.80,-108.07 381.33 80
8 02/19/2024 08:18:03 0.04,-104.73 -0.21,-103.54 135.32 80
9 02/20/2024 20:42:39 -0.05,-104.71 -0.99,-108.84 471.20 80
10 02/21/2024 20:23:48 -0.05,-104.71 0.03,-104.31 45.77 74
